Content
SEND FEEDBACK

Daily
Averages
Monthly
Summary
Indonesia

HASANUDIN, INDONESIA


Home > Asia > Indonesia
Elevation: 46 feet     Latitude: 05 04S     Longitude: 119 33E

WEATHER
 
SELECT A DAY
Number of Records: 196,432;   Date Range: 9/17/97 - 8/10/14
 
SHARE

PRINT THIS DATA

[ ← Previous Day ]
WEATHER ALMANAC - JANUARY 29, 2013
[ Next Day → ]
[ °C ]   °F
Weather ElementAverageHighLow
Temperature78.8 °F84.2 °F (2:30 pm)75.2 °F (7:30 am)
Dewpoint77.8 °F80.6 °F (4:29 pm)75.2 °F (7:30 am)
Humidity97 %100 % (12:30 am)77 % (2:00 pm)
Barometer26.20 in29.92 in (7:30 am) (7:00 pm)
Wind Speed5.7 mph13.8 mph (4:47 pm)
Wind Gust25.3 mph (4:47 pm)
Weather ElementAverage
Visibility4.3 mi
Wind DirectionSSE (151.4 °)

Weather ElementTotal
Precipitation---
Cooling Degree Days14.7 (Base 65)
Growing Degree Days29.7 (Base 50)
Averaged from 65 records on January 29, 2013
WEATHER CONDITIONS BREAKOUT
WIND DIRECTION BREAKOUT
WEATHER BY HOUR - JANUARY 29, 2013
[ °C ]   °F
Local TimeTemperatureDewpointHumidityBarometerVisibilityWind DirectionWind SpeedGust SpeedPrecipitationEventsConditions
12:30 AM77.0 °F77.0 °F100 %29.86 in3.7 miEast (80°)4.6 mphPartly Cloudy
1:00 AM77.0 °F77.0 °F100 %29.86 in3.7 miENE (60°)3.5 mphPartly Cloudy
1:30 AM77.0 °F77.0 °F100 %29.86 in3.7 miVariable2.3 mphPartly Cloudy
2:00 AM77.0 °F77.0 °F99 %29.86 in4.0 miEast (100°)3.5 mphScattered Clouds
2:00 AM77.0 °F77.0 °F100 %29.86 in4.3 miEast (90°)3.5 mphPartly Cloudy
2:08 AM77.0 °F77.0 °F100 %29.86 in3.1 miEast (80°)4.6 mphRainLight Rain
2:30 AM77.0 °F77.0 °F100 %29.83 in3.1 miNE (40°)4.6 mphRainLight Rain
3:00 AM77.0 °F77.0 °F100 %29.86 in3.1 miENE (70°)3.5 mphRainLight Rain
3:30 AM77.0 °F77.0 °F100 %29.86 in4.3 miENE (70°)3.5 mphScattered Clouds
3:57 AM77.0 °F77.0 °F100 %29.86 in4.3 miENE (60°)3.5 mphThunderstormThunderstorm
4:00 AM77.0 °F77.0 °F100 %29.86 in4.3 miENE (60°)3.5 mphThunderstormThunderstorm
4:30 AM77.0 °F77.0 °F100 %29.86 in4.3 miENE (70°)5.8 mphScattered Clouds
5:00 AM77.0 °F77.0 °F98 %29.87 in4.0 miENE (70°)5.8 mphThunderstormLight Thunderstorm
5:00 AM77.0 °F77.0 °F100 %29.86 in4.3 miENE (70°)4.6 mphScattered Clouds
5:12 AM77.0 °F77.0 °F100 %29.86 in4.3 miENE (70°)5.8 mphThunderstormThunderstorm
5:30 AM77.0 °F77.0 °F100 %29.86 in4.3 miVariable5.8 mphThunderstormThunderstorm
5:36 AM77.0 °F77.0 °F100 %3.1 miSW (220°)6.9 mphRain-ThunderstormLight Thunderstorms and Rain
6:00 AM77.0 °F77.0 °F100 %3.1 miNW (320°)4.6 mphRain-ThunderstormLight Thunderstorms and Rain
6:30 AM77.0 °F77.0 °F100 %29.89 in3.1 miENE (60°)5.8 mphRainLight Rain
7:00 AM77.0 °F77.0 °F100 %29.89 in3.7 miNNE (30°)4.6 mphRainLight Rain
7:30 AM75.2 °F75.2 °F100 %29.92 in3.1 miNNE (30°)4.6 mphRainLight Rain
8:00 AM76.0 °F76.0 °F100 %29.92 in3.0 miNE (50°)3.5 mphRainLight Rain
8:00 AM77.0 °F77.0 °F100 %29.92 in3.1 miNE (50°)4.6 mphRainLight Rain
8:30 AM77.0 °F77.0 °F100 %29.92 in2.5 miNNE (30°)5.8 mphRainLight Rain
9:00 AM77.0 °F77.0 °F100 %29.92 in3.1 miENE (60°)4.6 mphRainLight Rain
9:30 AM77.0 °F77.0 °F100 %29.92 in3.7 miENE (70°)3.5 mphRainLight Rain
10:00 AM77.0 °F77.0 °F100 %29.92 in4.3 miNE (50°)5.8 mphRainLight Rain
10:30 AM78.8 °F78.8 °F100 %29.92 in5.0 miNE (50°)3.5 mphPartly Cloudy
11:00 AM81.0 °F80.0 °F97 %29.91 in6.0 miNNE (20°)2.3 mphRainLight Rain
11:00 AM80.6 °F78.8 °F94 %29.89 in6.2 miENE (60°)4.6 mphPartly Cloudy
11:30 AM82.4 °F78.8 °F89 %29.89 in6.2 miVariable3.5 mphPartly Cloudy
12:00 PM82.4 °F77.0 °F84 %29.89 in6.2 miNorth (360°)8.1 mphScattered Clouds
12:30 PM82.4 °F78.8 °F89 %29.86 in6.2 miNNW (340°)4.6 mphPartly Cloudy
1:00 PM82.4 °F78.8 °F89 %29.86 in6.2 miNorth (350°)9.2 mphPartly Cloudy
1:30 PM82.4 °F77.0 °F84 %29.86 in5.0 miNorth (360°)9.2 mphRainLight Rain
2:00 PM83.0 °F77.0 °F77 %29.87 in6.0 miNNW (340°)9.2 mphRainLight Rain
2:00 PM82.4 °F77.0 °F84 %29.86 in6.2 miNNW (340°)9.2 mphPartly Cloudy
2:30 PM84.2 °F77.0 °F79 %29.86 in6.2 miNNW (340°)9.2 mphScattered Clouds
3:00 PM82.4 °F77.0 °F84 %29.86 in6.2 miNorth (360°)11.5 mphScattered Clouds
3:30 PM84.2 °F78.8 °F84 %29.83 in5.0 miNNW (330°)8.1 mphScattered Clouds
4:00 PM82.4 °F78.8 °F89 %29.83 in5.0 miNNW (340°)9.2 mphScattered Clouds
4:29 PM82.4 °F80.6 °F94 %3.7 miNNW (330°)8.1 mphRainLight Rain
4:30 PM82.4 °F78.8 °F89 %29.83 in5.0 miNNW (340°)8.1 mphMostly Cloudy
4:32 PM80.6 °F80.6 °F100 %3.7 miNW (320°)9.2 mphRainLight Rain
4:44 PM80.6 °F80.6 °F100 %2.5 miNNW (330°)10.4 mph21.9 mphRainRain
4:47 PM78.8 °F78.8 °F100 %29.83 in1.2 miNW (320°)13.8 mph25.3 mphRainHeavy Rain
5:00 PM77.0 °F77.0 °F100 %29.86 in1.0 miNW (320°)11.5 mphMostly Cloudy
5:00 PM77.0 °F77.0 °F100 %1.2 miNW (320°)13.8 mphRain-ThunderstormHeavy Thunderstorms and Rain
5:30 PM78.8 °F78.8 °F100 %29.86 in3.7 miNorth (350°)9.2 mphRain-ThunderstormLight Thunderstorms and Rain
6:00 PM78.8 °F78.8 °F100 %29.86 in5.0 miNW (310°)5.8 mphRainLight Rain
6:30 PM78.8 °F78.8 °F100 %5.0 miNorth (360°)4.6 mphRainLight Rain
7:00 PM78.8 °F78.8 °F100 %3.7 miENE (70°)3.5 mphRainLight Rain
7:13 PM78.8 °F78.8 °F100 %29.89 in5.0 miEast (100°)4.6 mphScattered Clouds
7:30 PM78.8 °F78.8 °F100 %29.89 in5.0 miEast (80°)4.6 mphPartly Cloudy
8:00 PM78.0 °F78.0 °F100 %29.89 in5.0 miESE (120°)3.5 mphRainLight Rain
8:00 PM78.8 °F78.8 °F100 %29.89 in5.0 miEast (100°)4.6 mphScattered Clouds
8:30 PM78.8 °F78.8 °F100 %29.89 in5.0 miESE (120°)3.5 mphScattered Clouds
9:00 PM78.8 °F78.8 °F100 %29.89 in5.0 miESE (110°)3.5 mphScattered Clouds
9:30 PM78.8 °F78.8 °F100 %29.92 in5.0 miVariable2.3 mphMostly Cloudy
10:00 PM78.8 °F78.8 °F100 %29.92 in5.0 miSouth (180°)3.5 mphScattered Clouds
10:30 PM78.8 °F78.8 °F100 %29.92 in5.0 miVariable2.3 mphScattered Clouds
11:00 PM78.0 °F78.0 °F100 %29.91 in5.0 miENE (70°)3.5 mphScattered Clouds
11:00 PM78.8 °F78.8 °F100 %29.92 in5.0 miVariable2.3 mphPartly Cloudy
11:26 PM77.0 °F77.0 °F100 %29.92 in5.0 miNNE (20°)3.5 mphRainLight Rain
11:30 PM77.0 °F77.0 °F100 %29.92 in5.0 miNNE (20°)3.5 mphRainLight Rain
Hourly data recorded from WAAA, located miles away from Hasanudin, Indonesia







STORIES FROM OUR PARTNERS